CFTIW KCMX-KAZO

Flight info

Callsign CFTIW
Flight time N/A
Altitude 13000
Route DCT
Aircraft BE58/L-SDE3/1200

Departure

Time N/A
Airport Houghton County Memorial Airport (KCMX)

Arrival

Time 2026-05-07 13:58
Airport Kalamazoo/Battle Creek International Airport (KAZO)
Time Latitude Longitude Altitude Speed Heading
2026-05-07 13:11 44.27026 -86.11411 12895 ft 179 kts 185°
2026-05-07 13:11 44.25778 -86.11306 12895 ft 179 kts 185°
2026-05-07 13:11 44.24533 -86.11201 12893 ft 179 kts 185°
2026-05-07 13:12 44.23289 -86.11096 12892 ft 179 kts 185°
2026-05-07 13:12 44.22044 -86.10990 12891 ft 179 kts 185°
2026-05-07 13:12 44.20798 -86.10883 12894 ft 180 kts 185°
2026-05-07 13:12 44.19549 -86.10778 12893 ft 180 kts 185°
2026-05-07 13:13 44.18299 -86.10671 12894 ft 180 kts 185°
2026-05-07 13:13 44.17051 -86.10565 12893 ft 179 kts 185°
2026-05-07 13:13 44.15810 -86.10279 12891 ft 188 kts 163°
2026-05-07 13:13 44.14726 -86.09260 12982 ft 188 kts 148°
2026-05-07 13:14 44.13717 -86.08085 13002 ft 191 kts 146°
2026-05-07 13:14 44.12714 -86.06844 13005 ft 194 kts 144°
2026-05-07 13:14 44.11684 -86.05641 13009 ft 193 kts 149°
2026-05-07 13:14 44.10555 -86.04780 13026 ft 184 kts 169°
2026-05-07 13:15 44.09328 -86.04323 13032 ft 181 kts 178°
2026-05-07 13:15 44.08089 -86.04011 13034 ft 181 kts 179°
2026-05-07 13:15 44.06852 -86.03844 13038 ft 177 kts 187°
2026-05-07 13:15 44.05618 -86.03789 13036 ft 178 kts 186°
2026-05-07 13:16 44.04375 -86.03677 13038 ft 179 kts 185°
2026-05-07 13:16 44.03130 -86.03461 13038 ft 182 kts 179°
2026-05-07 13:16 44.01887 -86.03130 13035 ft 183 kts 178°
2026-05-07 13:16 44.00641 -86.02778 13035 ft 183 kts 178°
2026-05-07 13:17 43.99396 -86.02431 13036 ft 183 kts 178°
2026-05-07 13:17 43.98147 -86.02085 13037 ft 183 kts 178°
2026-05-07 13:17 43.96898 -86.01741 13039 ft 183 kts 178°
2026-05-07 13:17 43.95650 -86.01395 13036 ft 183 kts 178°
2026-05-07 13:18 43.94403 -86.01050 13036 ft 183 kts 178°
2026-05-07 13:18 43.93154 -86.00706 13035 ft 183 kts 178°
2026-05-07 13:18 43.91909 -86.00362 13033 ft 182 kts 178°
2026-05-07 13:18 43.90663 -86.00018 13034 ft 182 kts 178°
2026-05-07 13:19 43.89418 -85.99675 13029 ft 182 kts 178°
2026-05-07 13:19 43.88189 -85.99336 13026 ft 183 kts 178°
2026-05-07 13:19 43.86925 -85.98988 13030 ft 183 kts 178°
2026-05-07 13:19 43.85678 -85.98644 13029 ft 183 kts 178°
2026-05-07 13:20 43.84432 -85.98301 13028 ft 183 kts 178°
2026-05-07 13:20 43.83202 -85.97962 13024 ft 183 kts 178°
2026-05-07 13:20 43.81955 -85.97619 13022 ft 182 kts 178°
2026-05-07 13:20 43.80707 -85.97276 13023 ft 182 kts 178°
2026-05-07 13:21 43.79466 -85.96935 13022 ft 182 kts 178°
2026-05-07 13:21 43.78220 -85.96593 13020 ft 182 kts 178°
2026-05-07 13:21 43.76977 -85.96251 13024 ft 182 kts 178°
2026-05-07 13:21 43.75733 -85.95910 13023 ft 182 kts 178°
2026-05-07 13:22 43.74489 -85.95569 13023 ft 182 kts 178°
2026-05-07 13:22 43.73245 -85.95228 13021 ft 182 kts 178°
2026-05-07 13:22 43.71997 -85.94886 13020 ft 183 kts 178°
2026-05-07 13:22 43.70752 -85.94544 13023 ft 182 kts 178°
2026-05-07 13:23 43.69507 -85.94203 13021 ft 182 kts 178°
2026-05-07 13:23 43.68261 -85.93862 13020 ft 182 kts 178°
2026-05-07 13:23 43.67036 -85.93527 13023 ft 182 kts 178°
2026-05-07 13:23 43.65779 -85.93183 13022 ft 182 kts 178°
2026-05-07 13:24 43.64553 -85.92847 13023 ft 182 kts 178°
2026-05-07 13:24 43.63311 -85.92508 13020 ft 182 kts 178°
2026-05-07 13:24 43.62069 -85.92169 13021 ft 182 kts 178°
2026-05-07 13:24 43.60826 -85.91829 13024 ft 182 kts 178°
2026-05-07 13:25 43.59583 -85.91490 13017 ft 182 kts 178°
2026-05-07 13:25 43.58340 -85.91151 13015 ft 182 kts 178°
2026-05-07 13:25 43.57096 -85.90811 13020 ft 182 kts 178°
2026-05-07 13:25 43.55852 -85.90472 13018 ft 182 kts 178°
2026-05-07 13:26 43.54610 -85.90133 13013 ft 182 kts 179°
2026-05-07 13:26 43.53370 -85.89796 13017 ft 182 kts 179°
2026-05-07 13:26 43.52127 -85.89457 13018 ft 182 kts 179°
2026-05-07 13:26 43.50883 -85.89118 13019 ft 182 kts 179°
2026-05-07 13:27 43.49640 -85.88781 13019 ft 182 kts 179°
2026-05-07 13:27 43.48395 -85.88442 13018 ft 182 kts 179°
2026-05-07 13:27 43.47150 -85.88103 13013 ft 182 kts 179°
2026-05-07 13:27 43.45906 -85.87764 13014 ft 182 kts 179°
2026-05-07 13:28 43.44660 -85.87427 13019 ft 182 kts 179°
2026-05-07 13:28 43.43416 -85.87089 13016 ft 182 kts 179°
2026-05-07 13:28 43.42169 -85.86751 13021 ft 183 kts 179°
2026-05-07 13:28 43.40923 -85.86414 13022 ft 182 kts 179°
2026-05-07 13:29 43.39694 -85.86079 13018 ft 182 kts 179°
2026-05-07 13:29 43.38452 -85.85741 13016 ft 182 kts 179°
2026-05-07 13:29 43.37212 -85.85406 13014 ft 182 kts 179°
2026-05-07 13:29 43.35967 -85.85070 13018 ft 183 kts 179°
2026-05-07 13:30 43.34719 -85.84731 13017 ft 183 kts 179°
2026-05-07 13:30 43.33474 -85.84394 13019 ft 183 kts 179°
2026-05-07 13:30 43.32225 -85.84057 13020 ft 183 kts 179°
2026-05-07 13:30 43.30979 -85.83720 13018 ft 183 kts 179°
2026-05-07 13:31 43.29732 -85.83382 13019 ft 182 kts 179°
2026-05-07 13:31 43.28488 -85.83047 13019 ft 182 kts 179°
2026-05-07 13:31 43.27238 -85.82709 13020 ft 183 kts 179°
2026-05-07 13:31 43.25994 -85.82373 13019 ft 183 kts 179°
2026-05-07 13:32 43.24748 -85.82037 13020 ft 183 kts 179°
2026-05-07 13:32 43.23501 -85.81700 13023 ft 182 kts 179°
2026-05-07 13:32 43.22257 -85.81366 13020 ft 182 kts 179°
2026-05-07 13:32 43.21012 -85.81030 13019 ft 182 kts 179°
2026-05-07 13:33 43.19768 -85.80695 13023 ft 182 kts 179°
2026-05-07 13:33 43.18520 -85.80359 13022 ft 183 kts 179°
2026-05-07 13:33 43.17275 -85.80023 13021 ft 182 kts 179°
2026-05-07 13:33 43.16031 -85.79688 13021 ft 182 kts 179°
2026-05-07 13:34 43.14788 -85.79355 13026 ft 182 kts 179°
2026-05-07 13:34 43.12315 -85.78690 13023 ft 182 kts 179°
2026-05-07 13:34 43.11071 -85.78355 13024 ft 182 kts 179°
2026-05-07 13:35 43.09828 -85.78022 13024 ft 182 kts 179°
2026-05-07 13:35 43.08588 -85.77690 13023 ft 182 kts 179°
2026-05-07 13:35 43.07347 -85.77355 13029 ft 182 kts 179°
2026-05-07 13:35 43.06105 -85.77023 13028 ft 182 kts 180°
2026-05-07 13:36 43.04863 -85.76691 13023 ft 182 kts 180°
2026-05-07 13:36 43.03618 -85.76357 13025 ft 182 kts 180°
2026-05-07 13:36 43.02374 -85.76024 13028 ft 183 kts 180°
2026-05-07 13:36 43.01123 -85.75689 13023 ft 183 kts 180°
2026-05-07 13:37 42.99873 -85.75354 13024 ft 183 kts 180°
2026-05-07 13:37 42.98627 -85.75020 13028 ft 182 kts 180°
2026-05-07 13:37 42.97383 -85.74689 13026 ft 182 kts 180°
2026-05-07 13:37 42.96141 -85.74356 13025 ft 182 kts 180°
2026-05-07 13:38 42.94898 -85.74023 13027 ft 182 kts 180°
2026-05-07 13:38 42.93654 -85.73692 13027 ft 182 kts 180°
2026-05-07 13:38 42.92414 -85.73361 13027 ft 182 kts 180°
2026-05-07 13:38 42.91171 -85.73030 13026 ft 182 kts 180°
2026-05-07 13:39 42.89929 -85.72698 13026 ft 182 kts 180°
2026-05-07 13:39 42.88687 -85.72367 13027 ft 181 kts 180°
2026-05-07 13:39 42.87448 -85.72037 13028 ft 182 kts 180°
2026-05-07 13:39 42.86205 -85.71706 13026 ft 182 kts 180°
2026-05-07 13:40 42.84962 -85.71375 13027 ft 182 kts 180°
2026-05-07 13:40 42.83721 -85.71044 13024 ft 182 kts 180°
2026-05-07 13:40 42.82481 -85.70714 13028 ft 181 kts 180°
2026-05-07 13:40 42.81244 -85.70384 13025 ft 181 kts 180°
2026-05-07 13:41 42.80022 -85.70047 13026 ft 183 kts 177°
2026-05-07 13:41 42.78795 -85.69520 13025 ft 186 kts 171°
2026-05-07 13:41 42.77555 -85.68918 13030 ft 187 kts 171°
2026-05-07 13:41 42.76359 -85.68335 12880 ft 186 kts 171°
2026-05-07 13:42 42.75137 -85.67747 12663 ft 186 kts 171°
2026-05-07 13:42 42.73921 -85.67163 12412 ft 184 kts 171°
2026-05-07 13:42 42.72708 -85.66589 12060 ft 185 kts 171°
2026-05-07 13:42 42.71496 -85.66025 11706 ft 183 kts 171°
2026-05-07 13:43 42.70289 -85.65473 11352 ft 182 kts 171°
2026-05-07 13:43 42.69930 -85.65312 11246 ft 182 kts 171°
2026-05-07 13:43 42.68725 -85.64778 10887 ft 182 kts 171°
2026-05-07 13:43 42.67524 -85.64257 10549 ft 181 kts 171°
2026-05-07 13:44 42.66733 -85.63918 10337 ft 180 kts 171°
2026-05-07 13:44 42.65535 -85.63417 10026 ft 179 kts 171°
2026-05-07 13:44 42.64342 -85.62928 9701 ft 179 kts 171°
2026-05-07 13:44 42.63155 -85.62448 9390 ft 178 kts 171°
2026-05-07 13:45 42.61973 -85.61971 9070 ft 177 kts 172°
2026-05-07 13:45 42.60797 -85.61505 8786 ft 176 kts 171°
2026-05-07 13:45 42.59625 -85.61041 8499 ft 175 kts 171°
2026-05-07 13:45 42.58455 -85.60583 8247 ft 175 kts 171°
2026-05-07 13:46 42.57288 -85.60132 8052 ft 174 kts 171°
2026-05-07 13:46 42.56127 -85.59682 7829 ft 173 kts 171°
2026-05-07 13:46 42.54971 -85.59240 7596 ft 172 kts 171°
2026-05-07 13:46 42.53831 -85.58722 7383 ft 174 kts 165°
2026-05-07 13:47 42.52709 -85.58098 7190 ft 174 kts 163°
2026-05-07 13:47 42.51603 -85.57443 6996 ft 173 kts 162°
2026-05-07 13:47 42.50505 -85.56790 6773 ft 171 kts 162°
2026-05-07 13:47 42.49459 -85.56173 6489 ft 171 kts 162°
2026-05-07 13:48 42.48370 -85.55534 6113 ft 170 kts 162°
2026-05-07 13:48 42.47293 -85.54903 5764 ft 168 kts 162°
2026-05-07 13:48 42.46238 -85.54285 5455 ft 166 kts 162°
2026-05-07 13:48 42.45170 -85.53659 5043 ft 164 kts 162°
2026-05-07 13:49 42.44136 -85.53036 4658 ft 162 kts 159°
2026-05-07 13:49 42.43123 -85.52372 4232 ft 161 kts 159°
2026-05-07 13:49 42.42124 -85.51718 3828 ft 161 kts 159°
2026-05-07 13:49 42.41311 -85.51189 3637 ft 159 kts 159°
2026-05-07 13:50 42.40961 -85.50962 3500 ft 159 kts 159°
2026-05-07 13:50 42.39974 -85.50328 3122 ft 159 kts 159°
2026-05-07 13:50 42.39065 -85.49759 2857 ft 157 kts 160°
2026-05-07 13:50 42.38063 -85.49140 2566 ft 158 kts 159°
2026-05-07 13:51 42.37075 -85.48526 2298 ft 156 kts 159°
2026-05-07 13:51 42.36091 -85.47917 2052 ft 153 kts 159°
2026-05-07 13:51 42.35181 -85.47345 2039 ft 139 kts 159°
2026-05-07 13:51 42.34320 -85.46787 2014 ft 134 kts 158°
2026-05-07 13:52 42.33477 -85.46243 2002 ft 140 kts 159°
2026-05-07 13:52 42.32564 -85.45661 2018 ft 149 kts 159°
2026-05-07 13:52 42.31604 -85.45067 2030 ft 155 kts 160°
2026-05-07 13:52 42.30605 -85.44447 2015 ft 158 kts 160°
2026-05-07 13:53 42.29613 -85.43823 1999 ft 158 kts 159°
2026-05-07 13:53 42.28625 -85.43185 2009 ft 158 kts 158°
2026-05-07 13:53 42.27639 -85.42539 2009 ft 157 kts 158°
2026-05-07 13:53 42.26696 -85.41922 2003 ft 147 kts 159°
2026-05-07 13:54 42.25740 -85.41696 1999 ft 135 kts 191°
2026-05-07 13:54 42.24865 -85.42004 2005 ft 125 kts 211°
2026-05-07 13:54 42.24214 -85.42719 1996 ft 119 kts 232°
2026-05-07 13:54 42.23846 -85.43647 2020 ft 112 kts 267°
2026-05-07 13:55 42.23793 -85.44700 2023 ft 110 kts 263°
2026-05-07 13:55 42.23711 -85.45690 2007 ft 103 kts 269°
2026-05-07 13:55 42.23685 -85.46640 2005 ft 100 kts 269°
2026-05-07 13:55 42.23643 -85.47596 1962 ft 105 kts 267°
2026-05-07 13:56 42.23546 -85.48580 1788 ft 106 kts 267°
2026-05-07 13:56 42.23458 -85.49548 1660 ft 103 kts 264°
2026-05-07 13:56 42.23372 -85.50517 1454 ft 107 kts 265°
2026-05-07 13:56 42.23368 -85.51499 1379 ft 100 kts 275°
2026-05-07 13:57 42.23391 -85.52305 1258 ft 80 kts 271°
2026-05-07 13:57 42.23369 -85.53031 1121 ft 75 kts 271°
2026-05-07 13:57 42.23391 -85.53732 1008 ft 72 kts 275°
2026-05-07 13:57 42.23379 -85.54428 933 ft 80 kts 273°
2026-05-07 13:58 42.23389 -85.55145 870 ft 69 kts 272°
2026-05-07 13:58 42.23396 -85.55471 874 ft 8 kts 268°
2026-05-07 13:58 42.23396 -85.55514 874 ft 1 kts 274°
2026-05-07 13:59 42.23404 -85.55524 874 ft 9 kts 353°
2026-05-07 13:59 42.23502 -85.55529 873 ft 21 kts
2026-05-07 13:59 42.23650 -85.55533 870 ft 21 kts 351°
2026-05-07 13:59 42.23752 -85.55588 870 ft 11 kts 320°
2026-05-07 14:00 42.23824 -85.55560 869 ft 15 kts 46°
2026-05-07 14:00 42.23900 -85.55459 866 ft 17 kts 44°
2026-05-07 14:00 42.23961 -85.55400 864 ft 8 kts 336°
2026-05-07 14:00 42.23992 -85.55436 864 ft 5 kts 317°
2026-05-07 14:01 42.23996 -85.55440 864 ft 0 kts 316°